"Pseudo-MPEC" for P10TUSn

Created 2019 Nov 9 8:07:18 UT using Find_Orb

Click here for an explanation of pseudo-MPECs

 
 Astrometry: 
     P10TUSn  C2019 11 02J^:42gtAstrometry8nE,c3mredacted;*9:H])$u!xZNM_R1S@xF51
     P10TUSn  C2019 11 02@CL3aA3`MvsA35(J?,Et*Y#1/CKPuFclicksGYhere4hlupBnk[*F51
     P10TUSn  C2019 11 02+y6*ttcQ,[`)-6$ScK2xnXMdTA/VW5:i*G=$0ndlTmyEq,for.C`F51
     P10TUSn |C2019 11 06kP3/*U:f-explanation.(v8O9p:a[`(9;EIw=0hmCwQRokS!SEP807
     P10TUSn |C2019 11 06F;D.P*$YC?3hB0+RRRP))\xNUT'V-L`.B+L5@+Y9r![\-h4_=iTo807
     P10TUSn |C2019 11 06q/$ye1%L?GW5tl/Y%HR'^4hL#MDtpxjh.nAsYFySnVBB#R!\T-=l807

Station data:
(807) Cerro Tololo Observatory, La Serena  (S30.169136 W70.805900)  Chile.
(F51) Pan-STARRS 1, Haleakala  (N20.707235 W156.255910)  US/Hawaii.
   Observers N. Primak, A. Schultz, S. Watters, J. Thiel, T. Goggia. Measurer
   PS1 Science Consortium. 1.8-m Ritchey-Chrétien + CCD.

Orbital elements:  P10TUSn
   Perihelion 2019 Aug 11.916185 +/- 86.7 TT = 21:59:18 (JD 2458707.416185)
Epoch 2019 Nov  6.0 TT = JDT 2458793.5   Earth MOID: 0.4902   AutoNEOCP
M  31.81364596 +/- 35               (J2000 ecliptic)
n   0.36956593 +/- 0.233            Peri.  278.21924 +/- 70
a   1.92312755 +/- 0.809            Node    74.63852 +/- 4.4
e   0.3103716 +/- 0.249             Incl.   20.10600 +/- 14
P   2.67/974.10d           H 20.9   G  0.15   U 11.8  SR
q 1.32624322 +/- 0.357    Q 2.52001188 +/- 6.84
From 6 observations 2019 Nov. 2-6; mean residual 0".15
Residuals in arcseconds: 
191102 F51  .06-  .13+    191102 F51  .08+  .34-    191106 807  .10+  .15-    
191102 F51  .02-  .21+    191106 807  .09-  .07-    191106 807  .01-  .23+    

Ephemerides (geocentric):
Date (UTC) HH   RA              Dec         delta   r     elong  mag " sig PA
---- -- -- --  -------------   -----------  ------ ------ -----  --- ---- ---
2019 11 09 08  04 43 28.066   +02 36 18.59  .56550 1.5069 150.0 21.6  240  42
2019 11 09 09  04 43 24.054   +02 37 18.89  .56548 1.5071 150.0 21.6  245  42
2019 11 09 10  04 43 20.038   +02 38 19.24  .56546 1.5072 150.1 21.6  250  42
2019 11 09 11  04 43 16.018   +02 39 19.61  .56544 1.5074 150.1 21.6  256  42
2019 11 09 12  04 43 11.993   +02 40 20.03  .56543 1.5075 150.2 21.5  261  42
2019 11 09 13  04 43 07.964   +02 41 20.48  .56541 1.5077 150.2 21.5  266  42
2019 11 09 14  04 43 03.931   +02 42 20.97  .56539 1.5078 150.3 21.5  271  42
2019 11 09 15  04 42 59.894   +02 43 21.50  .56537 1.5080 150.3 21.5  276  42
2019 11 09 16  04 42 55.853   +02 44 22.06  .56536 1.5081 150.4 21.5  281  42
2019 11 09 17  04 42 51.807   +02 45 22.66  .56534 1.5083 150.4 21.5  287  42
2019 11 09 18  04 42 47.757   +02 46 23.30  .56532 1.5084 150.5 21.5  292  42
2019 11 09 19  04 42 43.703   +02 47 23.97  .56531 1.5086 150.5 21.5  298  42
2019 11 09 20  04 42 39.645   +02 48 24.69  .56529 1.5087 150.6 21.5  303  42
2019 11 09 21  04 42 35.582   +02 49 25.43  .56527 1.5088 150.7 21.5  309  42
2019 11 09 22  04 42 31.516   +02 50 26.22  .56526 1.5090 150.7 21.5  314  42
2019 11 09 23  04 42 27.445   +02 51 27.03  .56524 1.5091 150.8 21.5  320  42
2019 11 10 00  04 42 23.370   +02 52 27.89  .56523 1.5093 150.8 21.5  325  42
2019 11 10 01  04 42 19.291   +02 53 28.78  .56522 1.5094 150.9 21.5  331  42
2019 11 10 02  04 42 15.208   +02 54 29.71  .56520 1.5096 150.9 21.5  337  42
2019 11 10 03  04 42 11.121   +02 55 30.67  .56519 1.5097 151.0 21.5  343  42
2019 11 10 04  04 42 07.029   +02 56 31.67  .56518 1.5099 151.0 21.5  349  42
2019 11 10 05  04 42 02.934   +02 57 32.71  .56516 1.5100 151.1 21.5  355  42
2019 11 10 06  04 41 58.835   +02 58 33.78  .56515 1.5102 151.1 21.5  360  42
2019 11 10 07  04 41 54.731   +02 59 34.88  .56514 1.5103 151.2 21.5  366  42
2019 11 10 08  04 41 50.624   +03 00 36.03  .56513 1.5105 151.3 21.5  373  42
2019 11 10 09  04 41 46.512   +03 01 37.20  .56511 1.5106 151.3 21.5  379  42
2019 11 10 10  04 41 42.396   +03 02 38.42  .56510 1.5108 151.4 21.5  385  42
2019 11 10 11  04 41 38.277   +03 03 39.66  .56509 1.5109 151.4 21.5  391  42
2019 11 10 12  04 41 34.153   +03 04 40.95  .56508 1.5111 151.5 21.5  397  42
2019 11 10 13  04 41 30.026   +03 05 42.27  .56507 1.5112 151.5 21.5  404  42
2019 11 10 14  04 41 25.894   +03 06 43.62  .56506 1.5114 151.6 21.5  410  42
2019 11 10 15  04 41 21.759   +03 07 45.01  .56505 1.5115 151.6 21.5  416  42
2019 11 10 16  04 41 17.619   +03 08 46.43  .56504 1.5117 151.7 21.5  423  42
2019 11 10 17  04 41 13.476   +03 09 47.89  .56504 1.5118 151.7 21.5  429  42
2019 11 10 18  04 41 09.328   +03 10 49.38  .56503 1.5119 151.8 21.5  436  42
2019 11 10 19  04 41 05.177   +03 11 50.90  .56502 1.5121 151.8 21.5  442  42
2019 11 10 20  04 41 01.022   +03 12 52.47  .56501 1.5122 151.9 21.5  449  42
2019 11 10 21  04 40 56.863   +03 13 54.06  .56500 1.5124 152.0 21.5  456  42
2019 11 10 22  04 40 52.700   +03 14 55.69  .56500 1.5125 152.0 21.5  462  42
2019 11 10 23  04 40 48.533   +03 15 57.35  .56499 1.5127 152.1 21.5  469  42
2019 11 11 00  04 40 44.362   +03 16 59.05  .56498 1.5128 152.1 21.5  476  42
2019 11 11 01  04 40 40.188   +03 18 00.78  .56498 1.5130 152.2 21.5  483  42
2019 11 11 02  04 40 36.009   +03 19 02.55  .56497 1.5131 152.2 21.5  490  42
2019 11 11 03  04 40 31.827   +03 20 04.35  .56497 1.5133 152.3 21.5  497  42
2019 11 11 04  04 40 27.641   +03 21 06.18  .56496 1.5134 152.3 21.5  504  42
2019 11 11 05  04 40 23.451   +03 22 08.04  .56496 1.5136 152.4 21.5  511  42
2019 11 11 06  04 40 19.258   +03 23 09.94  .56495 1.5137 152.4 21.5  518  42
2019 11 11 07  04 40 15.060   +03 24 11.88  .56495 1.5139 152.5 21.5  525  42